Weather in Kondratovskaya

Russia / Arkhangel'skaya Oblast'     62°22′48″N   43°57′37″E
temp.,
°C
wind,
m/s
gust,
m/s
humid.,
%
clouds,
%
prec.,
mm/h
press.,
hPa
HPBL,
m
8 may, sat
sat800:00+7wsw3787100 0.3 1008489
03:00+4sw279711 0.4 1010234
06:00+5sw24885 0.0 1012233
09:00+10s34675 0.0 1013832
12:00+14s474088 0.0 10122317
15:00+14s4848100 0.1 10111741
18:00+14sse4948100 0.0 10101463
21:00+10sse3873100 0.4 1010273
9 may, sun
sun900:00+9s31081100 0.7 1009981
03:00+7e3890100 1.8 1007370
06:00+7se3992100 1.1 1006493
09:00+8sse1497100 2.9 1005264
12:00+8nw2494100 2.1 1006363
15:00+7wnw4795100 5.1 1008677
18:00+6nw3892100 5.8 1011801
21:00+4nw3890100 5.9 1014448
10 may, mon
mon1000:00+2wnw2694100 0.0 1017148
03:00+1w25885 0.0 1019104
06:00+3wsw24815 0.0 1021189
09:00+8wsw35605 0.0 1023896
12:00+12wsw36375 0.0 10232182
15:00+14sw4735100 0.0 10232376
18:00+13sw474874 0.0 10231760
21:00+8s287676 0.0 1024193
11 may, tue
tue1100:00+8ssw3883100 0.0 1025423
03:00+8ssw3889100 0.0 1025493
06:00+8s3794100 0.1 1024356
09:00+12ssw4885100 0.6 1024508
12:00+16sw51272100 0.2 10221143
15:00+22wsw6115280 0.2 10221748
18:00+19w4957100 0.0 1023762
21:00+14wsw2481100 0.0 102364
12 may, wed
wed1200:00+12sw21088100 0.0 1025213
03:00+11sw2991100 0.0 1025232
06:00+14wsw3978100 0.0 1025330
09:00+18wsw4656100 0.0 1025833
12:00+22wsw4744100 0.0 10251495
15:00+23w46385 0.0 10241808
18:00+22w36445 0.0 1024606
21:00+16wsw226836 0.0 102518